www.weatherandclimate.eu
Time
(UTC), date
09 23.11
12 23.11
15 23.11
18 23.11
21 23.11
00 24.11
03 24.11
06 24.11
09 24.11
12 24.11
15 24.11
18 24.11
21 24.11
00 25.11
03 25.11
06 25.11
09 25.11
12 25.11
15 25.11
18 25.11
21 25.11
00 26.11
03 26.11
06 26.11
09 26.11
12 26.11
15 26.11
18 26.11
21 26.11
00 27.11
03 27.11
06 27.11
09 27.11
12 27.11
15 27.11
18 27.11
21 27.11
00 28.11
03 28.11
06 28.11
09 28.11
12 28.11
15 28.11
18 28.11
21 28.11
00 29.11
03 29.11
06 29.11
09 29.11
12 29.11
15 29.11
18 29.11
21 29.11
00 30.11
03 30.11
06 30.11
Wind
(dir.,m/s)
Visibility Phenomena Clouds Т
(С)
Тd
(С)
f
(%)
Тe
(С)
Тes
(С)
Comfort P
(hPa)
Po
hPa)
Тmin
(С)
Tmax
(С)
R
(mm)
R24
(mm)
S
(sm)
W 3 20 km 8/8 1000 м
[Sc]
+5.4 +0.9 73 +2 +3 seasonable 1030.7 1021.3
W 2 н/о н/о +6.0 -0.6 63 +4 +4 seasonable 1029.6 1020.2
0 10 km ясно +2.7 -0.5 79 +2 +2 seasonable 1030.4 1020.9 +6.3 1
SW 1 10 km ясно +1.1 -1.4 83 -1 -1 seasonable 1030.6 1021.0
W 1 10 km ясно +0.9 -0.9 88 -1 -1 seasonable 1029.8 1020.2
SW 2 10 km ясно +0.4 -1.4 88 -3 -3 cool 1029.0 1019.4
W 2 10 km ясно -1.9 -3.0 92 -6 -6 cold 1028.2 1018.5 -2.0
W 2 20 km 3/0
[Ac lent]
+1.3 -0.9 85 -2 -1 seasonable 1027.4 1017.9
E 2 20 km 4/0
[Ac lent Ci fib]
+5.8 -0.8 63 +4 +7 seasonable 1023.8 1014.5
E 3 20 km 8/0
[Ci]
+6.9 -0.9 58 +4 +5 seasonable 1021.9 1012.6
E 2 10 km 9/0
[Ac lent Ci fib]
+3.9 +0.2 77 +1 +1 seasonable 1022.3 1012.9 +7.2
0 4000 m mist 9/0
[As trans]
+2.2 +0.2 87 +1 +1 seasonable 1021.1 1011.7
W 2 4000 m mist 4/0
[Ac lent]
+1.0 -0.3 91 -3 -3 cool 1021.0 1011.5
SW 4 10 km 6/0
[Ac lent]
+2.4 -1.0 78 -2 -2 seasonable 1021.4 1012.0
W 4 10 km 6/0
[Ac lent]
+1.0 -1.5 83 -4 -4 cool 1022.0 1012.5 +0.4
W 3 20 km 10/0
[As trans]
+2.4 -2.1 72 -2 -1 seasonable 1024.0 1014.5
SW 2 20 km 10/0
[As trans]
+5.6 +1.5 75 +3 +5 seasonable 1023.0 1013.7
SW 2 20 km 10/0
[Ac As]
+6.3 +2.0 74 +4 +4 seasonable 1022.7 1013.4
SW 2 10 km 10/0
[Ac As]
+5.6 +0.8 71 +3 +3 seasonable 1023.9 1014.5 +6.3
SW 2 10 km 4/0
[Cc]
+4.2 0.0 74 +2 +2 seasonable 1023.8 1014.4
W 3 10 km 3/0
[Cc]
+2.8 -0.7 78 -1 -1 seasonable 1022.5 1013.1
W 2 10 km 9/0
[Ac trans]
+2.5 -1.1 77 -1 -1 seasonable 1022.3 1012.9
W 4 10 km 10/0
[Ac trans]
+0.6 -1.3 87 -5 -5 cold 1023.1 1013.6 +0.5
SW 4 20 km 6/0
[Ac lent]
+3.6 -1.7 68 -1 -0 seasonable 1023.8 1014.4 +0.3
W 3 20 km 9/5 1000 м
[Sc Ac lent]
+7.0 -0.4 59 +4 +5 seasonable 1022.0 1012.7
W 3 10 km 9/9 600 м
[Sc]
+7.8 +1.4 64 +5 +5 warm 1022.4 1013.1
SW 2 4000 m slightdrizzle {rain} 10/10 300 м
[St]
+5.3 +3.1 86 +3 +3 seasonable 1024.3 1014.9 +9.4 1
W 2 4000 m slightrain {drizzle} 10/10 300 м
[Ns]
+5.0 +3.3 89 +2 +2 seasonable 1025.0 1015.6
NW 2 4000 m slightdrizzle {rain} 10/10 300 м
[St]
+3.3 +2.1 92 0 0 seasonable 1026.9 1017.3
NW 1 4000 m slightdrizzle {rain} 10/10 300 м
[St]
+1.5 +0.6 94 -0 -0 seasonable 1028.7 1019.2
NW 1 4000 m mist {drizzle} 10/10 300 м
[St]
+0.4 -0.5 94 -2 -2 seasonable 1030.8 1021.2 +0.4 3
E 1 4000 m mist {drizzle} 3/0
[Ac lent]
+1.3 -0.4 88 -1 +1 seasonable 1032.0 1022.4 +0.2
E 2 20 km 3/0
[Ac cast]
+3.8 -0.5 73 +1 +4 seasonable 1031.0 1021.5
E 2 20 km ясно +5.5 -0.7 64 +3 +4 seasonable 1029.9 1020.5
E 2 10 km ясно +1.7 -0.6 85 -2 -2 seasonable 1030.3 1020.8 +5.9
NE 1 4000 m mist ясно -0.3 -1.6 91 -2 -2 seasonable 1030.5 1020.9
W 1 4000 m mist ясно -1.7 -2.7 93 -4 -4 cool 1029.9 1020.2
W 3 4000 m mist ясно -1.6 -2.4 94 -7 -7 cold 1029.1 1019.4
W 2 4000 m mist ясно -3.0 -4.1 92 -7 -7 cold 1029.3 1019.6 -3.1
W 2 20 km ясно -1.1 -2.8 88 -5 -4 cold 1029.1 1019.5 -3.4
N 2 20 km ясно +2.1 -0.6 82 -1 +3 seasonable 1027.0 1017.5
N 2 4000 m mist 10/10 300 м
[St]
+0.3 -0.8 92 -3 -3 cool 1026.4 1016.7
NE 1 500 m fog,skynotvisible ?/? -1.1 -1.5 97 -3 -3 cool 1026.3 1016.7 +3.2
NW 1 200 m fog,skynotvisible ?/? -2.3 -2.7 97 -5 -5 cold 1026.2 1016.5
0 200 m fog,skynotvisible ?/? -2.7 -3.1 97 -4 -4 cool 1026.2 1016.5
W 1 4000 m mist {fog} ясно -4.0 -4.6 96 -6 -6 cold 1026.1 1016.4
W 3 10 km ясно -2.7 -3.2 96 -8 -8 very cold 1026.4 1016.7 -4.2
W 3 4000 m mist 6/0
[Cc]
-2.3 -3.0 95 -8 -7 very cold 1027.0 1017.3 -4.4
N 2 4000 m mist 9/0
[As trans]
+0.1 -0.9 93 -4 -2 cool 1026.0 1016.4
N 1 4000 m mist 10/10 300 м
[St]
+1.9 +0.7 92 0 0 seasonable 1025.4 1015.9
NE 1 4000 m mist 10/10 200 м
[St]
+2.3 +1.1 92 +1 +1 seasonable 1026.2 1016.7 +2.3
W 2 4000 m mist 10/10 200 м
[St]
+2.7 +1.6 92 -1 -1 seasonable 1026.3 1016.8
W 2 4000 m mist 10/10 300 м
[St]
+3.1 +1.5 89 0 0 seasonable 1026.5 1017.0
W 2 4000 m mist 10/10 300 м
[St]
+3.2 +1.6 89 0 0 seasonable 1026.4 1016.9
W 3 4000 m mist 10/10 300 м
[St]
+3.4 +1.9 90 -1 -1 seasonable 1026.2 1016.8 +2.2
W 3 4000 m mist 10/10 300 м
[St]
+3.7 +2.0 89 -0 -0 seasonable 1026.8 1017.3
Weather station location Гудермес (Chechnya, Russia): latitude 43.35 longitude 46.12 Height above sea level 75 m.
The archive shows weather in в Гудермесе for the last week. For the whole month and for the previous months, starting from January 2011, you can obtain archived data by selecting the date range of interest from the drop-down list and clicking the "Find!".
*Decide who are you:
Attention! The time in the tables is UTC. To get the local time, you must add an amendment that is equal to 3 h.
See also the weather archive in nearby cities and at nearby weather stations:
Partners of our site:
Column explanations:
  • Wind - indicated wind speed in m/s - average for 10 minutes, gusts in time and between periods (in brackets) and the direction from which the wind blows: N - North, NE - North-East, E - East, SE - South-East , S - South, SW - South-West, W - West, NW - North-West.
  • Visibility - horizontal visibility range in meters or kilometers. When visibility is from 1 to 10 km in the absence of precipitation, haze is usually observed, and when visibility is reduced to 1 km or less, fog is observed. In dry weather, visibility may be reduced by smoke, dust, or haze.
  • Phenomena - atmospheric phenomena observed during the period or in the last hour before the period are indicated; curly brackets indicate phenomena observed between periods (1-3 hours before the period); square brackets indicate hail or ice deposits with their diameter in mm.
  • Clouds - are through slash total and lower clouds in points, and the height of the lower border of the cloud in meters; square brackets contain cloud forms: Ci - Cirrus, Cs - Cirrostratus, Cc - Cirrocumulus, Ac - Altocumulus, As - Altostratus, Sc - Stratocumulus, Ns - Nimbostratus, Cu - Cumulus, Cb - Cumulonimbus. For more information about cloud classification, see the cloud Atlas (PDF).
  • T - Air temperature - temperature measured at a height of 2 m above the ground.
  • Td - Dew point temperature - the temperature is lowered to that contained in the air, the water vapor reaches saturation.
  • f - Relative humidity measured at a height of 2 m above the ground.
  • Te - Effective temperature is the temperature that a seasonally dressed person feels in the shade. Characteristic of stuffy weather. The calculation takes into account the influence of air humidity and wind speed on a person’s heat.
  • Tes - Effective sun temperature - the temperature that a person feels, adjusted for solar heating. Characteristics of the sultry weather. Depends on the height of the sun above the horizon, cloud cover and wind speed. At night, in cloudy weather, as well as in winds of 12 m/s or more, the correction is zero.
  • P - Atmospheric pressure - atmospheric pressure reduced to sea level.
  • Po - Atmospheric pressure - atmospheric pressure measured at the station level.
  • Tmin - Minimum temperature - minimum air temperature at a height of 2 m above the ground.
  • Tmax - Maximum temperature - maximum air temperature at a height of 2 m above the ground.
  • R - Precipitation - The amount of precipitation over a period of time, mm. When you hover over the number, the time period for which the specified amount of precipitation has fallen.
  • R24 - Количество осадков - The amount of precipitation in 24 hours, mm.
  • S - Snow cover - The height of the snow cover. When you hover the mouse over the number - the state of the snow cover and the degree of coverage in points.